Regional Weather Roundup
Issued by NWS

Home | Current Version | Previous Version | Graphics & Text | Print | Product List | Glossary On
Versions: 1 2 3 4 5 6 7 8 9 10 11 12 13 14 15 16 17 18 19 20 21 22 23 24 25 26 27 28 29 30 31 32 33 34 35 36 37 38 39 40 41 42 43 44 45 46 47 48 49 50
000
ASUS43 KLMK 280402
RWRKY
KENTUCKY REGIONAL WEATHER ROUNDUP
NATIONAL WEATHER SERVICE LOUISVILLE KY
1200 AM EDT FRI AUG 28 2015

NOTE "FAIR" INDICATES FEW OR NO CLOUDS BELOW 12,000 FEET
WITH NO SIGNIFICANT WEATHER AND/OR OBSTRUCTIONS TO VISIBILITY.

KYZ001>023-026-027-061>063-070>075-280500-
WESTERN AND SOUTH CENTRAL KENTUCKY

CITY           SKY/WX    TMP DP  RH WIND       PRES   REMARKS
PADUCAH        CLEAR     59  57  93 CALM      30.08S
HENDERSON      CLEAR     61  55  82 CALM      30.09S
OWENSBORO      CLEAR     65  59  81 CALM      30.11F
HOPKINSVILLE   CLEAR     67  58  72 E6        30.09F
BOWLING GREEN  PTCLDY    63  55  75 NE3       30.12S
GLASGOW        CLEAR     62  56  79 NE5       30.12F
$$

KYZ024-025-028>034-038-045-046-053-280500-
NORTH CENTRAL KENTUCKY

CITY           SKY/WX    TMP DP  RH WIND       PRES   REMARKS
LOUISVILLE/SDF PTCLDY    69  57  65 E7        30.12S
LOUISVILLE/LOU PTCLDY    69  56  62 CALM      30.13F
FORT KNOX      PTCLDY    62  56  81 E1        30.12S
$$

KYZ035>037-039>044-047>052-055>060-089>105-280500-
NORTHEAST KENTUCKY

CITY           SKY/WX    TMP DP  RH WIND       PRES   REMARKS
LEXINGTON      CLEAR     64  54  69 E7        30.15F
COVINGTON      PTCLDY    63  56  78 SE3       30.15F
FRANKFORT      CLEAR     61  55  81 E5        30.13F
$$

KYZ054-064>069-076>088-106>120-280500-
SOUTHEAST KENTUCKY

CITY           SKY/WX    TMP DP  RH WIND       PRES   REMARKS
JACKSON        CLEAR     61  54  77 CALM      30.17F
LONDON         CLEAR     64  54  69 CALM      30.16F
SOMERSET       NOT AVBL
MIDDLESBORO    MOCLDY    63  60  91 CALM      30.15F
MONTICELLO     CLEAR     59  57  92 CALM      30.17F
$$




USA.gov is the U.S. government's official web portal to all federal, state and local government web resources and services.